Regional Weather Roundup
Issued by NWS Charleston, WV

Home | Current Version | Previous Version | Graphics & Text | Print | Product List | Glossary On
Versions: 1 2 3 4 5 6 7 8 9 10 11 12 13 14 15 16 17 18 19 20 21 22 23 24 25 26 27 28 29 30 31 32 33 34 35 36 37 38 39 40 41 42 43 44 45 46 47 48 49 50
000
ASUS41 KRLX 251510
RWRRLX
West Virginia Regional Weather Roundup
National Weather Service Charleston WV
1000 AM EST SUN JAN 25 2015

Note: "fair" indicates few or no clouds below 12,000 feet with no
significant weather and/or obstructions to visibility.

WVZ003-251600-
Northern Panhandle of West Virginia

CITY           SKY/WX    TMP DP  RH WIND       PRES   REMARKS
WHEELING       CLOUDY    33  30  88 SW6       29.78R FOG
$$

WVZ009-251600-
Northwest West Virginia

CITY           SKY/WX    TMP DP  RH WIND       PRES   REMARKS
PARKERSBURG    PTSUNNY   35  31  85 S5        29.82S FOG
$$

WVZ006-251600-
Western West Virginia

CITY           SKY/WX    TMP DP  RH WIND       PRES   REMARKS
HUNTINGTON     CLOUDY    35  31  85 S5        29.79R
$$

WVZ015-251600-
West Central West Virginia

CITY           SKY/WX    TMP DP  RH WIND       PRES   REMARKS
CHARLESTON     PTSUNNY   38  32  79 CALM      29.80S
$$

WVZ022-031-251600-
North Central West Virginia

CITY           SKY/WX    TMP DP  RH WIND       PRES   REMARKS
CLARKSBURG     CLOUDY    35  32  88 SW6       29.80R
MORGANTOWN     CLOUDY    35  29  78 SW3       29.80R
$$

WVZ025-035-042-045-251600-
Southern West Virginia

CITY           SKY/WX    TMP DP  RH WIND       PRES   REMARKS
BECKLEY        MOSUNNY   36  29  75 S7        29.80S
LOGAN            N/A     37  30  75 VRB6G12   29.80S
BLUEFIELD      PTSUNNY   35  27  72 SW5       29.81F
LEWISBURG      MOSUNNY   36  32  85 SW6       29.82F
$$

WVZ047-251600-
Northern Mountains of West Virginia

CITY           SKY/WX    TMP DP  RH WIND       PRES   REMARKS
ELKINS         CLOUDY    35  31  85 S8        29.79R
$$

WVZ052-251600-
Eastern Panhandle of West Virginia

CITY           SKY/WX    TMP DP  RH WIND       PRES   REMARKS
MARTINSBURG    CLOUDY    43  29  57 SW8       29.82R
PETERSBURG     CLOUDY    43  28  56 S6        29.82R
$$



USA.gov is the U.S. government's official web portal to all federal, state and local government web resources and services.